Regional Weather Roundup
Issued by NWS

Home | Current Version | Previous Version | Graphics & Text | Print | Product List | Glossary On
Versions: 1 2 3 4 5 6 7 8 9 10 11 12 13 14 15 16 17 18 19 20 21 22 23 24 25 26 27 28 29 30 31 32 33 34 35 36 37 38 39 40 41 42 43 44 45 46 47 48 49 50
000
ASUS43 KDMX 301607
RWRIA

WEATHER ROUNDUP FOR IOWA
NATIONAL WEATHER SERVICE DES MOINES IA
1100 AM CDT TUE JUN 30 2015

NOTE: "FAIR" INDICATES FEW OR NO CLOUDS BELOW 12,000 FEET WITH NO
SIGNIFICANT WEATHER AND/OR OBSTRUCTIONS TO VISIBILITY.

* - THESE STATIONS ARE NOT NWS STATIONS...THUS NOT UNDER NWS
QUALITY CONTROL.  THEY ALSO DO NOT REPORT WEATHER SUCH
AS PRECIPITATION OR FOG.

IAZ001>003-012>014-020>022-031>034-043>046-301700-
   NORTHWEST IOWA

CITY           SKY/WX    TMP DP  RH WIND       PRES   REMARKS
CARROLL *      SUNNY     73  64  73 N5        29.93S
CHEROKEE *     CLOUDY    70  66  88 CALM      29.94S
DENISON *      SUNNY     70  66  88 CALM      29.93R FOG
LE MARS *      SUNNY     72  66  83 CALM      29.97R
ORANGE CITY *  SUNNY     70  64  83 CALM      29.95S
SHELDON *      SUNNY     70  70 100 CALM      29.94S
SIOUX CITY     CLOUDY    74  65  73 MISG      29.95R HAZE
SPENCER        SUNNY     73  64  73 NE3       29.95R
STORM LAKE *   SUNNY     70  64  83 NE5       29.95F
$$

IAZ055>058-069>071-079>083-090>094-301700-
   SOUTHWEST IOWA

CITY           SKY/WX    TMP DP  RH WIND       PRES   REMARKS
ATLANTIC *     SUNNY     72  66  83 CALM      29.93F
AUDUBON *      SUNNY     73  66  78 NW3       29.94S
CLARINDA *     SUNNY     77  66  69 N5        29.95F
COUNCIL BLFS * SUNNY     75  66  73 NW3       29.94S
CRESTON *      SUNNY     73  64  73 NW5       29.94S
HARLAN  *      SUNNY     72  72 100 CALM      29.97S
LAMONI         MOSUNNY   75  66  73 N6        29.92F
RED OAK *      SUNNY     77  66  69 CALM      29.93F
SHENANDOAH *   SUNNY     77  66  69 VRB3      29.94F
$$

IAZ047>049-059>061-072>074-084-301700-
   CENTRAL IOWA

CITY           SKY/WX    TMP DP  RH WIND       PRES   REMARKS
AMES           SUNNY     74  66  76 NW6       29.91F
ANKENY *       SUNNY     75  66  73 N6        29.90F
CHARITON *     SUNNY     73  68  83 NW7       29.92S
DES MOINES     CLOUDY    76  65  68 NW3       29.90F
GRINNELL*      SUNNY     73  66  78 NW6       29.90F
KNOXVILLE *    SUNNY     73  66  78 NW7       29.89F
MARSHALLTOWN   SUNNY     74  67  78 NW5       29.89F HAZE
PELLA *        SUNNY     73  70  88 NW6G18    29.91S
PERRY *          N/A     72  66  83 NW5       29.92S
$$

IAZ004>006-015-016-023>025-035-036-301700-
   NORTH CENTRAL IOWA

CITY           SKY/WX    TMP DP  RH WIND       PRES   REMARKS
ALGONA *       SUNNY     72  64  78 N7        29.93F
CLARION *      SUNNY     73  64  73 N8        29.92S
ESTHERVILLE    SUNNY     70  64  81 N6        29.93F
FORT DODGE *   SUNNY     72  64  78 NW3       29.93F
MASON CITY     SUNNY     75  65  70 N6        29.93S
FOREST CITY *  SUNNY     70  63  78 N7        29.93S
IOWA FALLS *     N/A     73  66  78 NW8       29.92S
$$

IAZ007>011-017>019-026>030-037>042-050>054-066-301700-
   NORTHEAST IOWA

CITY           SKY/WX    TMP DP  RH WIND       PRES   REMARKS
CEDAR RAPIDS   SUNNY     74  65  73 VRB6      29.87S
CHARLES CITY * SUNNY     73  66  78 N8        29.91S
CLINTON *      SUNNY     72  61  68 N10       29.89S
DECORAH *        N/A    N/A N/A N/A MISG        N/A
DUBUQUE        SUNNY     72  63  73 NE8       29.88F
MONTICELLO *   SUNNY     73  73 100 N7        29.87S
OELWEIN *      SUNNY     73  63  68 VRB6      29.90S
WATERLOO       SUNNY     75  64  68 N5        29.88F
$$

IAZ064-065-067-068-078-301700-
   EAST CENTRAL IOWA

CITY           SKY/WX    TMP DP  RH WIND       PRES   REMARKS
DAVENPORT      SUNNY     75  62  64 N7        29.87S
IOWA CITY      SUNNY     76  65  68 N5        29.88S
MT. PLEASANT * SUNNY     77  64  65 NW9G16    29.87S
MUSCATINE *    SUNNY     77  63  61 N6        29.86S
QUAD CITIES    MOSUNNY   76  61  59 MISG      29.85F
$$

IAZ062-063-075>077-085>089-095>099-301700-
   SOUTHEAST IOWA

CITY           SKY/WX    TMP DP  RH WIND       PRES   REMARKS
BURLINGTON     SUNNY     75  68  78 W6        29.86F
FAIRFIELD *    SUNNY     73  66  78 NW8       29.88S
FORT MADISON * SUNNY     73  70  88 NW7       29.88S
KEOKUK *       SUNNY     75  68  78 NW9       29.87S
OSKALOOSA *      N/A     73  66  78 NW7       29.90S
CENTERVILLE *  SUNNY     73  66  78 NW8       29.92F
OTTUMWA        SUNNY     74  68  81 NW8       29.87F
WASHINGTON *   SUNNY     75  68  78 N9        29.89S
$$

ABBREVIATIONS USED IN REMARKS
   TC - TEMPERATURES IN CELSIUS
  WCI - WIND CHILL INDEX
   HX - HEAT INDEX
  VSB - VISIBILITY
$$



USA.gov is the U.S. government's official web portal to all federal, state and local government web resources and services.